Погода в Черняеве

Россия / Амурская область     52°47′25″N   125°59′56″E
темп.,
°C
ветер,
м/с
пор.,
м/с
влажн.,
%
обл.,
%
осадки,
мм/ч
давл.,
гПа
погр.,
м
21 июня, пн
пн2100:00+15зсз11765 0.0 100811
03:00+13з118216 0.0 100813
06:00+16з2476100 0.0 1009112
09:00+23зсз245110 0.0 1009585
12:00+27зсз343578 0.0 10072043
15:00+28сз443414 0.0 10062208
18:00+23ссз265599 0.0 1006180
21:00+18св2380100 0.0 100746
22 июня, вт
вт2200:00+16св1192100 0.3 100817
03:00+15ююз119165 0.4 100712
06:00+16з128971 0.1 100770
09:00+22сз246314 0.2 1007520
12:00+28зсз363481 0.0 10062224
15:00+30сз4528100 0.0 10053105
18:00+29з253624 0.0 10041033
21:00+21з311613 0.0 1005224
23 июня, ср
ср2300:00+17з287177 0.0 1005122
03:00+18з276845 0.0 1005149
06:00+18зсз157441 0.0 1006133
09:00+25сз354964 0.0 1006655
12:00+29сз353468 0.0 10051975
15:00+30сз243895 0.0 10041873
18:00+25ююв0055100 0.0 100415
21:00+18св119082 1.5 100511
24 июня, чт
чт2400:00+17з119125 0.0 100611
03:00+15ссз11925 0.0 100611
06:00+17з11905 0.0 100651
09:00+25зсз12558 0.0 1005536
12:00+30сз123898 0.0 10031509
15:00+31зсз243189 0.0 10023150
18:00+30зсз34333 0.0 10002018
21:00+22з226454 0.0 100133
25 июня, пт
пт2500:00+20зсз227078 0.1 100136
03:00+16зсз128428 0.1 100221
06:00+19з27771 0.1 1002227
09:00+25сз34536 0.1 1001643
12:00+30сз35364 0.0 10001811
15:00+27ссз2647100 0.0 999386
18:00+29св13352 0.1 9981573
21:00+21зюз117380 0.1 100027